This is the latest recevied weather packets stored in our database for station/object N0QV. If no packets are shown the sender has not sent any weather packets the latest 10 day(s).
| Time | Temp. | Humidity | Pressure | Rain* | Wind** | Luminosity | Snow |
|---|---|---|---|---|---|---|---|
| 1777639983 | 6.11° C | 71% | 1018.5 hPa | 0 mm | - | 66 W/m² | - |
| 1777639681 | 6.11° C | 72% | 1018.5 hPa | 0 mm | - | 64 W/m² | - |
| 1777639379 | 6.11° C | 75% | 1018.2 hPa | 0 mm | - | 60 W/m² | - |
| 1777639079 | 5.56° C | 78% | 1018.5 hPa | 0 mm | - | 59 W/m² | - |
| 1777638777 | 5.56° C | 79% | 1018.1 hPa | 0 mm | - | 55 W/m² | - |
| 1777638472 | 5° C | 82% | 1018.2 hPa | 0 mm | - | 54 W/m² | - |
| 1777638170 | 5° C | 83% | 1018.1 hPa | 0 mm | - | 48 W/m² | - |
| 1777637869 | 5° C | 85% | 1018.2 hPa | 0 mm | - | 46 W/m² | - |
| 1777637567 | 4.44° C | 86% | 1017.9 hPa | 0 mm | - | 41 W/m² | - |
| 1777637264 | 3.89° C | 88% | 1017.7 hPa | 0 mm | - | 39 W/m² | - |
| 1777636961 | 3.89° C | 89% | 1017.8 hPa | 0 mm | - | 34 W/m² | - |
| 1777636657 | 3.89° C | 90% | 1017.7 hPa | 0 mm | - | 31 W/m² | - |
| 1777636353 | 3.33° C | 90% | 1017.8 hPa | 0 mm | - | 28 W/m² | - |
| 1777636053 | 3.33° C | 90% | 1017.7 hPa | 0 mm | - | 24 W/m² | - |
| 1777635750 | 2.78° C | 90% | 1017.5 hPa | 0 mm | - | 20 W/m² | - |
| 1777635447 | 2.78° C | 90% | 1017.5 hPa | 0 mm | - | 16 W/m² | - |
| 1777635143 | 2.78° C | 90% | 1017.4 hPa | 0 mm | - | 14 W/m² | - |
| 1777634839 | 2.78° C | 90% | 1017.6 hPa | 0 mm | - | 11 W/m² | - |
| 1777634537 | 2.78° C | 90% | 1017.4 hPa | 0 mm | - | 7 W/m² | - |
| 1777634233 | 2.78° C | 90% | 1017.6 hPa | 0 mm | - | 5 W/m² | - |
| 1777633930 | 2.78° C | 89% | 1017.5 hPa | 0 mm | - | 3 W/m² | - |
| 1777633627 | 3.33° C | 89% | 1017.5 hPa | 0 mm | - | 1 W/m² | - |
| 1777633326 | 3.33° C | 89% | 1017.3 hPa | 0 mm | - | 0 W/m² | - |
| 1777633023 | 3.33° C | 89% | 1017.5 hPa | 0 mm | - | 0 W/m² | - |
| 1777632719 | 3.33° C | 89% | 1017.3 hPa | 0 mm | - | 0 W/m² | - |
* Rain latest hour (hover to see other rain measurements)
** Current wind speed in m/s (hover to see current wind gust speed)